This demonstration page uses our WeatherBlox Daily Observations layout. Learn more.

Left ArrowRight Arrow

Hourly Observations for October 25, 2021

Temp ( °F °C ) Dew Point ( °F °C ) Humidity (%) Winds ( mph kmh ) Pressure ( in mb ) Visibility ( mi km ) Precip ( " mm )
12:54 am 00:54 Cloudy 43 6 41 5 93 93 N 14 22 30.05 1018 10 16 N/A
12:56 am 00:56 Cloudy 43 6.1 41 5 93 93 N 13 20 30.03 1017 10 16 N/A
1:56 am 01:56 Cloudy 42 5.6 40 4.4 92 92 NNE 12 19 30.05 1018 10 16 N/A
2:56 am 02:56 Cloudy 42 5.6 40 4.4 92 92 NNE 13 20 30.04 1017 10 16 N/A
3:56 am 03:56 Cloudy 41 5 38 3.3 89 89 NNE 10 17 30.04 1017 10 16 N/A
4:56 am 04:56 Cloudy 41 5 38 3.3 89 89 NNE 8 13 30.06 1018 10 16 N/A
5:56 am 05:56 Cloudy 41 5 39 3.9 93 93 NNE 6 9 30.08 1019 10 16 N/A
6:56 am 06:56 Cloudy 40 4.4 38 3.3 93 93 ENE 7 11 30.09 1019 10 16 N/A
7:48 am 07:48 Cloudy 39 4 37 3 93 93 E 10 17 30.13 1020 10 16 N/A
7:56 am 07:56 Cloudy 40 4.4 38 3.3 93 93 ENE 9 15 30.09 1019 10 16 N/A
8:16 am 08:16 Cloudy 39 4 39 4 100 100 ENE 3 6 30.14 1021 8 13 N/A
8:56 am 08:56 Cloudy 40 4.4 39 3.9 97 97 ENE 7 11 30.12 1020 10 16 N/A
9:56 am 09:56 Cloudy 40 4.4 39 3.9 97 97 E 8 13 30.12 1020 10 16 N/A
10:56 am 10:56 Cloudy 40 4.4 39 3.9 97 97 E 6 9 30.12 1020 10 16 N/A
11:56 am 11:56 Cloudy 41 5 39 3.9 93 93 SE 8 13 30.12 1020 10 16 N/A
12:56 pm 12:56 Cloudy 43 6.1 40 4.4 89 89 SE 6 9 30.10 1019 10 16 N/A
1:56 pm 13:56 Cloudy 43 6.1 41 5 93 93 SE 10 17 30.07 1018 7 11 N/A
2:04 pm 14:04 Cloudy 43 6 41 5 93 93 ESE 13 20 30.08 1019 10 16 N/A
2:56 pm 14:56 Cloudy 45 7.2 41 5 86 86 SSE 14 22 30.04 1017 10 16 N/A
3:03 pm 15:03 Cloudy 45 7 41 5 87 87 SE 10 17 30.05 1018 10 16 N/A
3:56 pm 15:56 Cloudy 45 7.2 41 5 86 86 SE 15 24 30.01 1016 10 16 N/A
4:42 pm 16:42 Cloudy 45 7 43 6 93 93 SE 15 24 30.01 1016 10 16 N/A
4:56 pm 16:56 Cloudy 44 6.7 42 5.6 93 93 SE 14 22 29.99 1016 10 16 N/A
5:56 pm 17:56 Cloudy 44 6.7 42 5.6 93 93 SSE 15 24 29.99 1016 10 16 N/A
6:56 pm 18:56 Cloudy 44 6.7 42 5.6 93 93 SSE 15 24 30.00 1016 10 16 N/A
7:56 pm 19:56 Cloudy 44 6.7 42 5.6 93 93 SSE 13 20 30.01 1016 10 16 N/A
8:25 pm 20:25 Cloudy 45 7 43 6 93 93 SSE 17 28 30.01 1016 10 16 N/A
8:56 pm 20:56 Cloudy 45 7.2 43 6.1 93 93 SSE 14 22 30.00 1016 10 16 N/A
9:56 pm 21:56 Cloudy 46 7.8 43 6.1 89 89 SE 15 24 29.98 1015 10 16 N/A
10:56 pm 22:56 Cloudy 46 7.8 44 6.7 93 93 SSE 13 20 29.98 1015 10 16 N/A
11:56 pm 23:56 Cloudy 44 6.7 42 5.6 93 93 SE 14 22 29.96 1015 10 16 N/A

Powered by AerisWeather